Showing default

OPS 4682 (SNAPSHOT), 1314

Orbit data source: Space-Track

OPS 4682 (SNAPSHOT), 1314 is an American payload satellite in LEO that was launched on Sat, 03 Apr 1965 UTC via an ATLAS SLV-3 AGENA D launch vehicle from the Air Force Western Test Range (AFWTR). Payload-class satellites include a variety of spacecraft equipped with specific instruments for various scientific and technological missions. These include communications satellites like Starlink; space stations such as the ISS; scientific satellites like the Hubble; Earth observation satellites from companies like Planet Labs, Umbra, and HawkEye 360; GPS; miniature CubeSats for education and research; and military/defense satellites.

Loading next visibility...
Identifier
1314, 1965-027A
Orbit
LEO
Country
Flag of USUS
Related business
Manufacturer
RCA/East Windsor
Mission
Spacecraft
Bus & Motor
SNAP 10 REACTOR, Unknown motor
Mass
2,386 kg wet, 422 kg dry
Launch date (UTC)
1965-04-03 (61 years ago)
Launch vehicle
ATLAS SLV-3 AGENA D
Launch site
Air Force Western Test Range (AFWTR)
Object type
Payload
Rocket body
Debris
Shape & HBR
Unknown shape, 2.3 m
Radar Cross Section
Large (>1 m²)

Expand to show TLE details & history
Last TLE update: 11 hours ago

TLE from 11 hours ago
0 OPS 4682 (SNAPSHOT)
1 01314U 65027A   26125.72021072  .00000016  00000-0  31242-4 0  9999
2 01314  90.2433   5.3272 0031547  44.1337  17.4880 12.91804837625546
Epoch: 2026-05-05T17:17Z
TLE epoch observation values (Epoch: 2026-05-05T17:17:06.206Z)
Latitude
61.81479°
Longitude
-117.99143°
Altitude
1,281.935 km
Speed
7.232 km/s
True Right ascension
00h 19m 30s
True Declination
61° 40' 52"
Sunlit
Object was in daylight at epoch
Visualization orbit readout
Latitude
Unknown
Longitude
Unknown
Altitude
Unknown
Speed
Unknown
Apparent Right ascension
Unknown
Apparent Declination
Unknown
Sunlit
N/A
Visualization observer readout
Local Sidereal Time
11:43:55
Azimuth
Unknown
Elevation
Unknown
Doppler factor
Unknown
Orbital elements
Apogee altitude
1,315.7 km
Perigee altitude
1,267.309 km
Semi-major axis
7,669.642 km
Eccentricity
0.00315
Inclination
90.2433°
RAAN
5.3272°
Arg. of periapsis
44.1337°
True anomaly
17.59704°
Mean anomaly
17.488°
Eccentric anomaly
17.54248°
Mean motion
3.23132 °/min
Orbital period
111.41 mins
BSTAR
0.000031242
Loading maneuver chart data...
Computing Atmospheric mass density...
Loading historical data...
Loading historical data...
Loading historical data...
Loading historical data...
Loading historical data...
Loading historical data...
Loading historical data...

Documentation

Showing up to 5 results
|